Wind_Speed
52 52 52 53 53 53 54 56 57 58 57 55 56 57 55 54 55 54 53 51 49 50 52 54 57 62 66 72 76 77 79 80 81 82 84 87 91 93 91 89 87 81 68 54 45 42 42 42 41 41 42 45 47 50 53 57 60 62 63 65 66 66 66 66 67 70 72 70 69 69 69 68 69 72 77 81 82 78 74 71 69 68 68 68 68
52 53 53 53 54 55 57 58 59 60 59 58 58 57 55 55 55 55 57 55 52 52 54 55 59 64 68 74 77 78 80 82 83 84 85 87 91 95 94 91 88 82 71 58 49 47 46 44 43 42 42 44 46 47 50 54 58 61 63 65 66 66 67 68 69 71 74 73 71 71 70 69 70 71 73 78 83 82 78 76 73 70 69 70 69
52 53 54 55 57 59 59 59 60 61 61 60 58 57 58 57 56 57 59 59 56 55 56 58 61 66 70 77 80 80 82 84 86 86 86 88 92 96 97 95 92 85 74 62 55 53 51 47 45 44 44 45 46 47 48 51 55 59 61 63 65 66 67 69 72 73 75 75 74 73 73 72 71 72 73 75 80 83 82 80 78 74 72 71 71
54 54 56 60 60 58 59 60 62 63 62 60 59 59 60 60 60 59 59 60 59 57 58 60 64 67 71 77 82 82 83 87 89 89 89 89 92 97 99 99 96 89 78 66 59 56 53 49 47 47 47 47 48 49 49 50 54 56 58 60 61 64 66 69 72 75 76 77 77 76 76 76 74 72 73 74 77 81 83 83 82 79 76 73 72
55 56 59 60 57 57 61 64 65 64 62 62 62 61 62 63 63 59 57 59 59 59 60 62 66 69 71 76 81 83 84 88 90 90 91 91 93 97 101 101 99 93 82 70 61 57 54 51 50 50 50 51 52 52 51 52 54 55 56 56 57 60 63 67 70 74 76 78 80 79 79 79 78 75 72 73 76 79 82 85 85 83 81 77 74
57 58 56 55 57 61 64 64 64 63 63 65 66 65 64 64 61 55 54 57 58 59 61 64 67 70 71 76 81 83 86 89 91 92 92 92 93 97 102 103 101 95 85 73 64 59 56 54 52 52 52 54 55 55 54 54 55 56 55 54 55 57 60 63 67 71 74 78 80 81 81 80 80 79 75 71 74 78 81 84 87 87 85 82 78
57 55 53 54 59 63 61 61 62 62 63 66 67 66 64 61 56 53 53 55 57 60 63 66 71 73 74 77 81 85 87 90 93 93 92 92 93 98 104 105 102 96 86 75 66 62 60 58 56 55 54 55 56 56 55 55 56 57 55 54 54 56 58 61 64 67 71 75 78 80 81 81 81 81 78 74 73 77 81 83 86 88 89 86 83
56 55 53 52 55 58 58 58 60 61 64 67 67 64 60 57 55 53 52 55 60 64 67 72 75 75 76 79 83 87 90 91 95 96 94 94 96 100 106 107 104 98 87 76 68 65 63 61 59 58 56 56 56 55 55 55 56 57 56 55 54 55 57 60 63 66 69 72 76 79 79 80 81 81 81 78 74 75 79 82 84 88 90 89 87
53 54 53 51 53 55 57 59 63 64 66 68 64 57 56 58 58 55 55 59 64 68 73 77 78 77 79 82 86 91 93 94 97 98 96 96 98 103 108 109 106 99 87 76 70 67 66 64 62 60 59 58 57 55 54 54 55 55 56 56 55 55 57 59 62 64 68 71 75 78 78 79 80 81 81 80 77 74 77 81 83 86 89 90 91
52 52 50 47 50 56 60 64 66 67 68 69 62 55 56 61 62 60 61 64 67 71 75 78 78 80 84 88 90 94 97 97 98 100 99 98 100 105 109 110 107 98 85 75 71 70 68 67 65 62 61 59 58 57 56 55 54 54 55 56 56 55 56 58 60 62 65 69 72 75 76 76 77 79 80 80 78 75 75 80 83 85 88 90 92
49 47 44 43 50 60 66 66 65 66 67 64 57 54 57 60 63 64 66 69 71 74 76 78 81 86 91 93 94 98 100 99 100 102 102 101 103 107 111 111 106 96 83 74 71 71 71 70 68 65 61 60 59 58 57 56 54 54 54 55 55 55 55 56 57 59 62 65 68 70 71 71 73 76 77 77 77 75 74 78 82 85 86 88 92
47 48 49 50 55 63 65 63 61 60 58 54 53 55 58 61 64 66 68 71 73 75 77 81 86 93 96 96 98 102 103 101 101 104 105 104 106 110 112 110 104 93 82 75 72 73 74 73 71 68 64 61 59 58 58 57 55 54 54 54 54 54 53 53 53 55 58 60 63 64 64 65 67 71 73 74 75 74 74 77 82 84 86 88 91
51 53 53 53 56 59 58 54 51 48 47 50 54 56 58 62 66 68 70 73 75 77 81 86 92 98 99 98 101 105 104 102 103 106 108 108 108 112 114 109 100 89 81 76 75 77 77 76 73 70 66 62 59 58 59 57 56 54 53 53 53 52 51 51 50 52 53 55 57 59 58 59 63 67 70 71 73 73 72 76 81 84 85 87 90
52 53 51 51 51 52 48 43 42 46 50 55 58 61 64 69 71 73 75 77 80 83 87 92 97 99 99 99 104 106 105 103 105 108 110 110 111 114 114 107 97 87 81 79 79 80 80 77 74 70 67 63 60 58 58 57 56 54 53 52 52 50 48 48 49 49 49 50 52 54 54 55 59 64 67 70 71 71 72 75 81 83 85 87 90
50 51 50 46 45 45 42 40 46 55 60 62 65 68 71 74 75 77 80 83 86 90 93 95 98 98 99 103 106 106 105 104 105 109 112 112 113 114 111 104 94 86 83 83 84 83 80 77 73 70 68 64 60 57 57 56 55 54 53 51 50 48 46 46 47 47 46 46 47 49 51 53 56 61 66 68 70 70 71 74 79 82 84 87 89
49 48 46 41 39 42 44 47 53 60 64 65 69 72 74 76 79 81 84 87 90 93 95 96 98 100 103 107 107 105 104 104 106 111 113 113 113 112 107 98 89 84 85 88 87 84 81 77 74 71 68 65 61 57 55 54 53 52 51 50 49 46 44 44 44 44 43 43 44 46 48 51 54 59 64 66 68 69 70 73 78 82 84 86 89
53 51 49 46 45 47 49 52 56 59 62 66 70 73 74 77 79 83 87 91 94 95 97 99 101 104 107 107 105 103 103 105 109 112 113 113 111 108 101 92 85 85 89 90 88 86 83 79 75 71 68 65 61 57 54 52 51 50 49 49 47 45 43 42 41 40 39 39 41 43 46 49 52 57 61 63 66 69 70 73 78 81 83 86 89
58 59 58 56 55 55 56 59 62 63 67 71 75 77 79 81 84 89 93 95 97 99 101 103 105 107 107 104 103 103 104 107 111 113 112 112 108 102 94 87 84 88 91 91 90 89 86 81 76 71 68 64 60 55 53 50 48 47 47 47 45 43 41 39 38 36 35 36 38 41 44 47 50 54 58 61 65 69 71 74 78 80 83 86 90
60 63 65 66 67 66 65 68 70 73 75 78 82 86 88 90 92 94 95 96 98 101 104 106 107 106 105 105 104 104 105 109 112 112 111 110 104 97 92 89 89 91 93 93 94 92 87 81 75 70 67 63 58 54 51 48 45 44 44 44 42 40 38 36 34 34 34 34 36 39 42 46 49 52 55 59 64 68 71 74 77 80 83 87 90
61 64 67 71 74 76 77 78 80 81 84 87 90 93 95 95 95 96 97 98 99 102 106 108 107 106 106 105 103 103 107 110 111 111 110 107 100 96 95 93 93 95 95 96 98 95 88 80 74 69 65 60 56 52 49 46 43 42 42 41 39 37 35 32 31 31 32 33 33 36 40 44 47 49 52 55 61 68 72 74 76 79 84 87 89
64 65 67 71 75 78 81 84 86 87 89 91 93 96 98 100 100 100 99 98 98 100 104 106 106 106 104 102 102 106 110 110 110 111 109 103 98 97 96 95 96 97 97 99 100 95 87 80 74 68 63 58 54 50 47 44 42 40 39 37 35 34 32 30 29 29 30 31 32 33 37 41 43 45 48 51 57 65 71 73 74 77 83 87 89
64 65 67 70 74 78 81 84 86 88 89 92 96 99 101 103 103 100 98 96 95 95 98 100 101 102 102 102 106 109 110 109 110 109 104 99 98 97 96 96 98 99 99 101 100 94 86 79 73 66 61 56 52 48 44 42 40 38 36 34 32 31 29 28 27 27 28 28 28 30 34 37 38 41 44 47 52 60 67 71 73 76 82 87 89
67 69 70 72 75 77 80 81 83 84 85 84 81 78 80 87 92 93 93 93 93 93 95 97 98 99 101 105 108 109 109 110 110 105 101 99 99 97 96 98 101 101 102 102 99 92 84 77 70 63 58 53 49 45 41 39 38 36 33 31 30 28 26 25 24 25 26 25 25 28 31 33 34 36 39 43 48 54 61 67 71 74 80 85 88
72 73 74 75 77 78 80 81 81 82 81 75 64 57 61 75 87 93 94 96 96 97 97 97 98 99 102 106 109 109 110 110 106 101 100 100 99 97 97 100 102 103 103 102 97 89 81 74 66 60 55 51 46 42 39 37 36 34 31 30 29 26 24 23 23 24 24 23 23 25 28 30 31 32 34 38 43 48 55 62 67 72 77 82 87
73 74 73 73 74 75 73 70 69 70 70 70 69 69 74 84 92 96 96 97 97 97 97 98 98 100 104 108 110 110 109 106 101 99 100 100 99 99 100 102 104 105 104 101 94 85 76 69 62 56 51 47 43 39 36 35 34 32 29 29 28 25 23 22 22 23 22 21 21 22 24 26 28 28 30 34 39 44 50 55 62 68 74 79 84
65 65 64 63 64 64 61 60 60 60 62 65 72 78 82 87 91 94 96 97 97 98 99 99 100 104 108 110 109 107 104 100 98 100 101 100 100 101 103 104 105 105 103 98 89 79 71 64 58 53 48 44 40 36 34 33 31 29 28 28 27 24 23 22 21 20 19 18 18 19 20 22 23 24 26 30 35 41 46 50 56 63 70 75 81
56 57 60 64 65 63 62 65 68 70 74 79 83 85 87 89 92 96 98 99 99 99 100 101 104 108 110 108 105 102 99 98 100 101 101 101 102 104 105 104 104 104 101 93 82 73 65 58 54 50 46 41 37 34 32 31 29 28 28 29 27 24 23 21 19 18 18 17 15 15 16 17 17 19 22 26 32 37 42 47 52 59 66 73 78
64 69 75 80 80 75 72 72 72 72 74 79 83 86 89 92 94 95 96 96 98 100 102 105 107 107 105 102 99 97 98 99 101 101 101 103 105 106 105 103 103 101 95 85 75 67 60 54 50 47 42 38 34 31 30 29 27 26 28 29 28 25 22 19 18 18 17 15 13 10 11 12 14 17 20 24 28 33 38 44 49 55 62 69 75
64 70 76 80 81 80 79 78 77 76 76 79 83 88 93 94 93 93 94 97 100 102 104 104 103 101 98 96 96 97 98 100 101 101 103 105 106 105 103 102 101 97 88 78 69 61 55 50 46 43 39 35 31 29 28 27 26 27 30 31 29 25 22 19 18 17 16 14 11 7 7 10 13 16 19 20 23 29 35 40 45 52 58 66 72
61 65 70 74 75 76 78 79 81 83 84 87 90 93 94 93 93 95 97 99 100 101 100 99 97 96 95 95 95 97 98 99 101 102 104 105 106 105 104 102 99 90 80 70 63 56 51 46 42 39 36 32 30 28 26 25 25 28 32 33 30 26 22 19 19 18 15 14 10 6 8 12 14 16 19 19 19 24 30 35 41 48 56 63 70
70 73 75 77 78 79 80 82 84 87 89 91 92 93 93 93 95 96 96 97 97 97 97 96 96 96 95 94 94 96 98 100 102 103 104 106 107 106 103 100 93 82 72 64 58 52 48 44 40 36 33 30 28 27 25 25 26 30 35 34 31 27 23 20 20 19 15 14 11 7 9 14 17 18 20 20 18 20 26 32 38 45 52 60 67
76 77 77 78 79 82 85 87 88 89 90 91 92 92 92 93 93 94 95 97 98 98 98 98 97 95 93 92 94 96 99 102 102 103 106 109 108 104 100 94 85 75 65 59 55 50 45 41 38 34 31 28 27 26 25 25 27 33 37 36 32 28 24 22 22 20 17 15 13 10 11 15 19 21 22 22 21 20 22 27 34 42 50 58 66
80 81 81 83 85 88 90 91 91 90 90 90 91 91 92 94 96 98 100 101 100 99 96 94 92 91 90 91 94 98 101 102 103 105 109 109 105 101 95 87 77 68 61 56 52 47 42 38 35 33 30 28 26 26 26 26 29 35 40 39 34 30 27 24 23 22 19 17 15 13 13 16 20 23 25 26 25 24 24 25 30 38 46 54 63
84 84 85 86 87 89 90 89 88 87 88 89 91 93 96 98 99 98 96 93 90 87 86 86 86 88 90 93 96 99 101 104 106 108 108 105 100 96 89 80 70 63 58 54 50 45 40 36 33 32 30 28 26 26 26 27 31 38 42 41 37 33 29 25 24 24 22 20 18 15 15 17 21 25 28 30 30 30 29 28 29 33 41 49 57
83 83 84 84 85 86 86 86 87 88 91 94 96 97 96 94 91 87 84 81 80 81 83 85 87 90 92 94 96 100 104 107 108 107 104 99 95 89 81 73 66 60 55 51 47 43 38 34 32 31 30 29 27 26 27 29 33 40 45 43 40 36 32 27 26 25 25 23 22 18 16 19 22 26 30 33 35 35 34 34 33 33 37 44 51
85 85 85 86 87 88 89 90 92 94 95 94 92 90 86 83 81 79 78 79 81 84 85 87 89 91 93 96 100 104 107 107 106 103 98 94 88 81 74 67 62 59 54 49 44 41 37 33 32 31 30 29 28 27 29 30 34 42 48 46 43 39 35 30 28 28 28 27 25 21 19 20 23 28 31 34 38 39 38 38 39 37 38 41 47
86 87 88 90 91 92 93 93 92 91 89 86 84 82 81 80 79 79 81 83 86 88 90 92 94 96 98 101 103 105 105 104 101 98 93 87 80 73 67 62 60 57 53 47 43 39 36 33 31 31 31 30 29 29 30 32 36 44 50 50 46 43 38 34 31 30 30 30 28 24 21 21 24 29 32 34 39 42 41 40 42 42 41 42 46
89 91 92 93 92 92 90 89 87 86 85 84 84 83 82 82 82 84 87 90 92 94 96 98 100 102 102 103 103 102 101 99 96 92 86 80 73 67 62 59 57 54 50 46 42 39 36 33 31 31 32 31 30 30 31 33 37 44 52 53 50 46 42 37 34 33 33 33 31 27 24 23 25 30 33 35 39 44 44 42 43 45 45 46 48
91 91 90 89 87 86 85 85 85 86 87 87 87 86 86 87 89 92 94 96 98 100 102 103 104 105 104 102 100 98 96 93 90 85 80 74 68 63 59 56 53 50 48 45 42 39 36 33 31 30 32 32 31 31 33 35 37 45 53 56 53 51 47 42 38 36 35 35 34 31 27 25 26 30 34 36 39 44 46 46 45 47 48 49 50
85 84 84 84 84 84 86 86 87 88 89 90 91 91 91 92 94 96 99 101 104 105 106 107 106 105 103 100 97 93 91 89 85 79 74 69 64 60 57 54 51 47 45 44 42 40 38 35 32 31 31 32 32 32 34 36 38 44 53 58 57 54 51 47 42 40 38 37 37 35 31 29 28 31 35 39 41 43 46 48 49 49 50 51 51
82 83 84 85 86 87 89 90 91 92 93 93 94 95 96 97 100 102 104 106 107 107 107 106 104 102 99 96 93 90 87 83 78 73 68 65 61 58 55 52 48 45 43 43 43 42 39 36 34 32 30 31 32 33 34 37 40 44 53 60 61 58 55 52 47 44 42 41 40 39 36 33 32 33 36 40 43 43 44 48 52 53 53 53 52
84 85 86 87 89 90 91 92 93 94 95 96 97 99 101 102 103 103 104 104 104 104 103 101 98 96 94 91 89 85 81 77 72 68 65 62 58 55 52 49 47 45 43 43 43 43 40 38 37 34 32 31 32 33 34 37 40 44 51 60 64 63 60 57 52 49 46 44 44 43 41 38 37 37 38 40 44 46 45 46 51 54 56 55 54
85 86 88 90 91 92 92 93 94 94 95 97 99 100 100 101 100 101 102 102 101 100 98 95 93 91 89 86 82 78 74 70 66 63 61 59 56 52 49 47 45 44 44 43 43 42 40 39 38 36 34 32 32 33 35 37 40 44 50 59 66 67 64 61 58 54 51 48 47 47 45 43 41 41 41 41 43 47 48 47 49 53 57 58 57
87 89 90 91 91 91 92 92 93 94 95 96 97 98 99 100 100 100 100 99 97 95 93 90 87 85 81 78 74 71 68 64 61 59 57 55 52 50 48 46 45 43 43 42 41 40 39 38 38 37 35 34 33 33 35 37 40 44 49 57 65 69 68 65 62 59 56 53 51 51 50 48 46 45 45 45 45 47 49 49 48 51 56 60 61
88 87 88 89 90 90 91 92 93 94 95 95 96 97 98 98 96 95 93 91 88 86 83 80 78 76 73 71 68 66 63 59 56 54 53 51 49 48 47 46 43 41 40 39 38 37 37 36 36 35 35 34 33 33 35 36 39 43 47 54 63 70 72 70 67 64 61 58 56 54 54 53 51 49 49 49 48 49 51 51 50 50 54 59 63
85 85 86 87 87 87 88 89 90 91 91 92 92 92 91 89 87 84 82 80 77 74 72 70 69 68 67 66 64 62 59 54 50 49 48 47 46 46 45 44 41 39 37 37 36 35 34 33 33 32 33 33 32 32 34 36 38 42 46 52 60 69 74 74 72 69 66 63 60 59 58 57 56 54 53 52 52 53 53 53 52 51 53 59 64
88 87 85 83 82 82 82 83 83 84 84 85 84 83 81 79 77 75 73 70 68 67 65 63 62 62 62 60 59 58 55 50 47 45 45 44 43 42 41 40 38 36 34 33 33 32 30 30 29 29 30 30 30 31 31 33 36 41 45 50 56 65 74 77 76 73 71 68 65 63 62 61 61 59 58 56 56 56 57 57 55 54 55 59 63
88 84 81 80 80 79 78 77 77 78 78 76 75 74 73 71 69 68 66 65 63 62 60 59 58 57 56 55 54 54 51 48 45 43 42 40 39 39 37 35 34 32 30 29 28 28 27 27 26 27 27 27 28 28 29 30 33 37 42 48 53 60 70 77 79 78 75 73 70 68 66 65 64 64 62 61 59 59 60 61 60 58 58 60 62
83 81 80 80 78 75 74 74 75 74 72 70 70 70 69 67 65 64 63 62 60 59 56 54 52 51 50 50 50 50 48 46 44 42 39 37 36 35 34 32 29 28 27 26 26 26 26 25 25 26 27 27 27 27 27 28 30 33 38 44 49 55 63 73 80 81 79 77 75 73 70 68 68 67 66 66 64 63 62 63 64 64 63 64 65
82 81 80 77 74 73 73 73 72 70 69 69 69 68 66 64 62 60 58 57 56 54 52 50 47 46 46 46 46 45 43 42 40 38 36 33 32 32 31 29 27 26 26 26 27 27 26 25 26 27 28 27 27 26 26 27 28 30 33 39 45 51 57 66 76 82 83 81 79 78 75 73 71 71 70 69 69 68 66 65 66 67 68 69 69
82 80 77 73 71 71 69 68 68 68 69 69 67 65 62 59 57 55 53 52 51 50 49 47 44 42 42 42 41 40 38 37 36 34 32 31 30 29 29 28 26 26 26 27 28 28 27 26 26 28 29 28 27 26 26 27 28 29 31 35 40 46 52 58 67 77 83 85 83 81 80 78 75 74 73 73 72 72 71 69 69 69 70 72 73
Wind_Direction
314 315 317 319 318 317 316 316 316 317 317 314 311 311 313 315 319 322 321 320 321 323 322 320 321 323 325 327 327 327 327 327 327 328 329 331 334 336 336 337 338 338 332 322 316 313 307 301 297 292 286 281 274 268 263 260 258 255 253 250 246 242 240 241 243 247 249 248 246 244 241 238 237 235 233 233 233 231 230 229 228 226 225 224 224
314 316 317 317 315 314 313 313 315 315 314 311 309 310 311 313 315 318 318 316 316 319 319 318 319 321 325 328 328 327 327 327 328 328 328 329 331 333 335 335 336 336 331 322 316 315 311 305 300 295 291 286 281 275 270 265 261 258 255 252 249 245 242 241 242 244 247 248 247 247 244 240 238 237 234 233 233 232 230 229 229 227 224 223 223
314 314 313 313 313 313 313 314 316 315 312 309 308 307 308 309 311 313 314 313 312 314 316 315 316 319 324 328 328 326 327 327 327 327 327 327 329 331 332 333 335 335 331 322 313 311 310 305 301 298 294 291 286 281 276 271 267 262 258 255 252 248 244 242 242 242 244 246 247 247 247 244 239 237 235 234 233 232 230 228 228 227 225 223 223
314 313 312 312 313 313 314 315 314 311 309 307 304 303 303 305 307 307 308 309 309 311 313 313 314 317 321 326 327 326 325 325 326 327 326 326 326 328 331 332 333 333 330 324 315 310 308 304 302 300 297 294 290 285 280 276 272 267 262 258 255 252 248 244 242 242 243 245 246 246 247 246 243 238 235 234 233 232 230 229 227 226 225 224 223
314 316 313 310 312 315 314 312 310 308 306 303 301 300 300 302 304 303 303 306 307 308 310 310 312 316 319 323 325 324 324 325 326 325 325 324 325 327 329 330 331 331 330 325 318 313 309 305 303 301 298 295 292 288 284 280 277 272 267 263 259 255 251 247 244 242 243 244 245 246 246 246 246 243 237 233 233 232 231 229 227 225 225 224 223
315 319 315 307 308 312 311 308 306 304 302 301 301 300 301 304 304 300 300 304 305 306 307 308 311 313 315 319 323 323 323 324 325 324 323 323 322 324 327 328 329 330 329 324 319 314 311 308 304 301 298 296 293 290 288 284 280 276 271 267 263 258 255 251 248 245 243 244 244 245 245 245 245 245 242 236 232 232 231 229 228 225 224 224 223
314 318 315 306 305 308 308 305 303 300 300 304 305 303 303 305 302 297 299 301 302 304 305 306 308 310 313 317 320 321 322 323 324 323 322 321 321 322 325 327 327 328 327 324 319 316 313 309 306 302 299 296 293 291 289 286 282 279 275 270 266 262 258 255 252 249 246 246 245 245 244 244 244 245 244 240 234 231 230 229 228 226 224 223 223
312 314 314 309 305 305 303 300 297 296 300 306 307 304 303 302 298 294 296 299 300 303 304 305 307 309 311 315 318 319 320 321 323 323 321 320 320 322 324 325 326 327 326 323 319 317 314 311 308 305 302 299 295 292 290 287 284 281 278 274 269 265 261 258 254 252 249 248 247 246 244 244 244 244 244 243 238 232 230 229 227 226 224 223 222
310 311 314 314 307 297 294 295 294 293 298 303 303 301 298 297 295 291 293 297 300 302 304 306 307 307 310 313 315 316 317 319 322 322 320 319 320 321 323 324 325 326 325 322 319 317 315 313 310 308 306 303 299 295 292 288 285 282 280 276 273 268 265 261 257 254 252 250 249 247 246 244 243 243 243 242 240 234 229 228 227 225 224 223 222
304 303 307 306 296 287 289 295 294 291 295 299 299 294 291 293 294 290 290 295 299 300 302 304 305 306 308 310 311 313 315 317 320 321 320 318 319 320 322 323 324 324 323 321 319 318 317 315 312 309 307 305 302 299 295 291 287 284 281 278 275 272 268 265 261 257 254 251 249 248 247 245 243 242 242 241 240 235 229 226 226 225 223 222 221
299 296 296 289 280 282 289 293 293 291 293 295 293 290 289 291 293 292 292 294 296 298 300 303 304 306 306 308 309 310 312 314 317 320 319 317 318 319 321 322 323 323 322 321 320 320 318 316 313 310 308 306 304 302 298 294 291 288 284 281 277 275 272 268 265 261 257 254 251 249 247 244 242 240 240 239 238 234 229 225 224 224 222 221 221
293 291 293 288 283 285 289 290 292 291 290 289 289 289 289 290 293 294 294 295 296 297 300 301 303 305 305 306 307 308 310 312 315 317 318 317 317 318 319 320 322 322 321 321 320 320 319 317 314 311 308 306 305 303 300 297 293 291 287 284 281 278 275 272 267 263 259 256 253 250 246 243 240 238 237 237 235 232 227 222 222 222 221 220 220
293 291 293 289 285 289 292 291 289 284 282 287 290 290 290 293 295 296 296 296 297 298 298 299 301 304 304 305 305 306 308 310 312 315 317 316 316 318 319 320 321 321 321 320 320 321 320 318 315 312 309 306 305 304 301 298 295 293 290 287 284 281 279 275 270 264 260 256 252 250 246 241 237 235 233 233 232 229 224 220 220 220 220 218 219
296 293 292 289 286 291 295 287 276 275 281 288 290 291 292 295 296 296 296 295 295 296 297 299 302 304 303 303 304 305 306 308 310 313 315 315 316 318 319 320 320 321 321 321 321 321 320 318 316 313 310 307 306 304 301 299 297 295 292 290 286 284 281 277 272 266 261 255 251 248 244 239 235 233 231 230 229 227 222 218 218 218 218 217 218
289 288 289 290 289 291 289 276 270 277 284 287 289 291 292 293 293 293 292 292 293 295 298 300 301 301 301 302 304 304 304 306 308 311 313 315 316 318 318 319 320 320 320 321 321 321 320 319 316 313 310 307 306 304 301 299 297 295 293 290 288 286 282 276 272 267 261 256 251 248 243 238 234 232 230 227 227 226 221 217 216 217 217 216 217
278 280 279 277 275 274 270 265 269 278 283 285 288 289 290 290 290 289 290 291 294 296 298 298 299 299 299 301 302 302 302 304 306 309 312 314 316 317 318 318 319 319 320 322 322 322 321 319 317 314 311 308 306 304 301 298 296 295 293 291 289 286 282 276 271 266 261 256 252 248 244 239 234 231 229 226 225 224 221 216 215 216 216 215 216
274 277 276 272 269 266 263 263 269 274 277 280 283 286 287 287 287 288 291 293 295 296 297 297 297 298 299 300 300 300 301 302 305 308 311 314 316 317 317 318 318 319 321 322 322 322 321 320 317 314 310 308 305 303 300 297 295 294 292 290 289 286 280 275 270 265 261 257 253 250 246 241 236 232 229 226 224 223 221 216 214 215 215 214 215
273 275 276 274 273 270 267 267 270 274 276 278 281 284 285 286 287 290 293 295 296 297 297 298 298 298 298 298 299 299 300 302 305 309 312 314 315 316 317 318 318 319 322 323 323 322 321 319 316 313 310 307 305 303 300 297 295 292 290 289 287 283 278 273 269 264 260 256 252 249 246 243 239 234 229 226 224 223 221 217 214 213 214 213 214
271 272 272 273 273 273 271 270 272 274 276 278 280 283 285 287 289 291 293 295 296 297 297 297 296 297 297 297 297 298 300 303 306 309 311 313 314 314 316 317 318 319 321 323 323 321 319 317 315 312 309 307 305 303 299 296 293 291 289 287 283 279 274 270 267 263 260 255 251 248 246 244 240 237 231 226 224 223 221 218 214 212 213 213 213
272 271 271 272 273 274 274 274 275 276 277 279 282 285 287 289 291 292 293 295 296 296 296 295 295 295 295 296 296 298 301 304 307 309 311 312 312 313 315 316 318 319 321 322 322 321 318 316 314 312 309 306 304 302 298 295 292 289 287 284 278 273 269 265 262 261 260 257 252 248 247 245 242 239 234 228 224 224 222 219 214 211 212 213 212
276 274 272 271 272 273 274 275 277 278 280 282 284 287 288 289 290 290 291 292 294 295 294 293 293 294 295 296 298 301 303 305 307 309 310 311 312 313 314 316 318 320 320 321 321 320 317 315 313 311 308 305 302 300 297 293 290 287 284 279 271 266 263 260 259 259 258 257 255 252 249 247 245 242 238 232 226 224 223 220 215 211 211 212 211
278 276 274 272 273 274 274 275 276 277 279 281 285 287 288 288 286 286 288 291 292 293 292 292 293 294 295 297 299 302 304 305 307 308 308 310 312 313 314 316 319 319 320 320 320 318 316 314 312 310 306 303 301 298 294 290 288 286 281 272 263 258 256 256 257 258 257 255 256 255 254 252 249 245 241 236 229 225 223 221 217 212 211 211 210
280 279 278 277 276 275 275 275 275 276 278 282 286 289 289 286 285 286 289 291 291 290 290 290 292 293 294 297 299 302 303 304 306 306 308 310 312 313 314 316 318 319 319 319 319 317 314 312 310 308 304 301 299 296 292 287 285 282 275 264 254 250 249 250 253 256 257 256 256 256 256 255 252 247 242 237 231 226 223 221 217 213 211 210 209
285 283 281 279 277 276 276 276 276 276 276 276 275 276 280 283 285 288 290 291 290 289 289 289 290 291 293 297 299 301 302 304 305 306 309 311 312 312 313 315 317 318 318 318 317 315 312 310 308 305 302 300 297 294 289 285 282 278 268 255 246 242 241 243 247 251 255 256 256 257 257 256 252 247 240 236 231 227 223 220 217 214 211 209 208
289 287 284 281 280 279 278 276 276 277 276 270 264 265 273 279 283 286 287 287 288 288 288 289 289 291 294 297 299 301 302 304 305 307 310 311 311 312 313 314 316 317 317 317 315 313 310 308 306 302 300 297 294 290 286 282 278 273 260 245 237 234 234 236 243 248 252 254 255 257 256 254 249 243 237 233 229 225 222 219 216 214 211 208 207
293 290 287 284 284 281 273 269 271 274 274 272 270 271 275 278 280 282 284 285 285 286 286 287 288 291 295 297 299 301 303 305 307 309 310 311 311 311 312 313 315 316 316 315 313 311 308 306 303 300 298 295 291 287 283 279 274 266 250 236 229 226 227 231 239 246 251 253 254 255 254 250 245 238 231 227 225 222 219 216 214 212 210 207 206
284 281 281 282 283 280 272 269 271 271 272 273 274 275 277 280 281 283 283 283 283 284 285 287 290 293 296 299 301 303 305 306 308 309 309 309 310 311 311 312 314 315 315 314 311 309 307 304 301 298 296 292 288 284 279 275 269 257 239 226 220 219 222 228 235 243 248 250 250 250 249 245 239 230 224 221 219 218 214 211 210 209 208 206 205
274 271 272 275 278 277 275 274 274 273 273 273 273 275 279 282 283 283 283 283 283 285 287 290 294 297 300 302 303 305 306 306 307 308 308 308 309 309 310 312 314 315 314 312 309 307 305 302 299 296 293 289 285 280 276 270 262 246 228 217 212 213 217 225 233 240 246 247 243 243 243 238 229 221 214 214 214 212 209 207 206 206 205 205 204
275 271 271 273 274 275 273 272 273 274 275 275 275 278 282 283 284 284 284 285 287 289 292 295 298 301 302 303 304 304 305 305 306 306 307 307 308 309 310 312 314 314 313 310 308 306 303 300 297 293 289 285 281 276 271 264 253 235 218 210 207 208 213 222 229 234 239 241 237 232 226 221 217 209 202 204 210 208 203 203 204 203 202 203 203
273 273 274 275 276 275 274 274 275 276 277 279 280 282 283 284 285 287 288 289 292 294 297 299 301 302 302 302 302 303 303 303 304 305 306 307 308 309 310 312 314 313 311 309 306 304 302 298 294 290 285 281 277 273 266 257 243 224 211 205 204 205 209 218 224 227 231 233 230 225 215 208 203 197 191 191 200 203 199 197 200 201 201 201 201
269 271 274 276 277 278 279 280 281 281 282 283 284 285 286 288 289 290 292 293 295 297 299 300 300 300 301 301 301 301 301 302 303 304 305 308 309 310 311 312 313 312 310 307 305 303 300 295 291 286 281 276 273 269 261 250 234 217 207 202 202 202 206 214 220 221 224 225 219 223 225 208 193 184 182 183 187 194 194 194 195 197 198 198 199
270 271 273 275 277 280 282 283 284 284 285 286 287 288 289 290 291 292 293 294 295 296 296 297 297 298 299 299 300 300 301 301 302 304 306 309 310 310 311 313 312 311 309 307 305 302 298 293 288 283 277 272 268 263 256 244 227 213 204 201 200 201 204 212 218 219 219 216 211 220 230 210 189 178 177 177 176 176 182 189 193 194 195 197 197
273 274 275 276 278 280 282 282 283 285 286 287 288 289 290 291 291 292 292 292 293 293 293 294 295 296 297 299 299 300 300 301 303 305 307 309 310 311 312 312 311 309 308 307 305 301 297 291 285 279 273 268 263 258 251 239 223 210 203 199 200 201 202 209 217 217 214 210 207 215 228 214 192 181 178 177 173 167 169 182 191 192 193 195 196
276 276 276 278 279 280 280 282 283 284 286 286 287 288 289 289 290 290 291 291 292 293 293 294 295 296 297 298 299 300 301 303 305 307 308 309 310 311 311 311 310 308 308 307 304 300 295 289 282 275 269 264 259 253 246 235 220 209 202 199 200 201 201 207 216 216 213 208 204 209 225 221 201 186 181 181 179 173 171 178 186 190 192 194 195
280 280 280 280 280 281 282 284 284 285 285 285 286 287 287 287 288 289 291 292 294 295 295 295 296 296 297 299 300 301 303 305 306 308 309 309 310 310 310 310 308 307 307 306 302 298 294 287 279 272 266 260 256 250 242 233 219 208 201 199 200 200 199 203 213 216 214 209 204 204 219 224 209 193 186 186 185 181 178 179 182 187 192 194 195
284 284 284 284 284 285 285 286 285 285 285 286 286 287 287 288 289 290 292 293 294 295 296 296 296 297 298 299 300 302 304 306 307 308 308 309 309 309 309 308 307 306 306 304 300 296 292 286 278 270 263 258 253 247 239 231 219 208 201 199 200 200 199 200 208 215 215 211 205 203 212 222 214 200 193 192 190 186 184 183 182 183 188 193 196
286 286 287 287 287 288 288 288 289 289 289 289 290 290 290 291 291 292 294 295 296 296 296 296 297 298 299 300 302 303 305 306 307 307 307 308 308 308 307 306 306 305 303 302 299 295 291 285 277 269 262 256 251 245 238 231 220 209 202 199 199 200 199 199 204 212 215 212 208 203 207 218 216 205 199 197 193 189 187 187 186 184 184 189 195
287 287 288 289 289 290 291 291 291 292 292 293 294 294 294 294 294 295 296 296 297 297 297 297 298 299 301 302 303 304 305 306 306 306 306 306 306 306 305 304 303 302 301 300 297 294 290 285 278 269 262 256 250 243 237 231 222 211 203 200 200 200 199 199 202 209 214 215 211 205 205 214 216 209 203 201 196 191 189 189 190 188 186 186 190
287 288 289 290 291 291 292 292 293 294 295 295 296 297 297 296 296 296 296 297 297 297 297 298 299 300 301 302 303 304 305 305 305 305 305 305 305 305 303 302 300 299 297 296 295 292 289 285 278 270 263 256 250 244 237 231 225 214 206 201 200 200 200 199 201 205 211 215 215 210 206 209 213 211 207 202 196 193 192 191 192 192 190 188 189
288 289 290 291 292 293 294 294 295 296 296 297 298 298 298 297 296 296 296 296 296 296 297 298 299 300 301 302 303 304 304 304 304 304 304 304 303 302 301 299 297 295 294 293 292 289 287 284 279 271 264 257 251 245 238 232 226 218 209 203 201 201 200 199 200 203 207 213 216 214 209 208 210 210 208 201 195 193 195 195 193 193 192 190 191
290 291 292 293 293 294 295 296 296 297 297 298 298 297 297 296 295 295 295 295 296 296 297 297 298 299 301 302 303 303 303 303 302 302 302 301 300 299 298 296 294 292 291 290 288 286 285 283 279 274 266 258 252 247 241 234 228 221 213 206 203 202 201 200 200 202 204 208 213 215 213 209 207 206 207 203 196 195 198 199 196 194 193 192 192
291 292 293 293 294 295 295 296 296 296 296 296 296 295 295 295 295 296 296 296 296 297 297 298 298 299 300 301 302 302 301 301 301 301 300 299 298 296 294 293 291 290 289 287 285 283 283 281 278 275 270 261 253 248 243 236 230 224 217 210 205 203 202 200 200 201 203 205 209 213 214 212 207 204 206 207 202 197 198 200 198 197 196 194 193
291 292 292 293 293 293 293 293 293 293 293 293 293 293 294 294 295 296 296 296 297 297 297 298 299 299 300 300 300 300 299 299 300 299 298 297 295 294 292 290 290 289 287 285 283 282 280 279 277 274 271 264 256 249 244 239 233 227 220 213 208 206 204 202 201 201 202 203 206 210 213 213 209 204 204 208 208 204 200 200 200 199 198 196 195
290 290 290 291 291 291 291 291 291 291 291 292 293 293 293 294 294 294 294 295 295 296 296 297 298 299 299 299 298 298 297 298 298 297 295 294 293 292 291 290 289 288 287 284 283 281 279 278 276 274 271 266 259 251 245 240 236 230 224 217 212 208 206 204 202 202 202 203 204 207 210 213 213 208 204 206 210 210 205 201 201 201 200 198 197
288 288 289 289 290 289 289 289 290 290 291 292 292 292 292 292 292 293 293 293 294 295 296 297 297 297 297 297 296 296 296 296 296 295 293 292 292 292 291 291 289 288 286 284 282 281 279 278 277 275 272 268 262 254 246 241 237 232 227 221 215 211 208 206 204 203 203 203 203 205 208 210 213 212 208 206 208 211 208 204 202 203 202 200 197
288 289 289 290 289 290 290 291 291 292 292 292 292 291 291 291 292 293 293 294 295 295 296 296 296 296 295 295 295 295 295 295 294 292 291 291 291 291 291 290 289 288 286 284 283 282 281 280 279 278 275 271 266 259 249 242 237 234 230 225 219 214 211 208 207 205 204 203 203 205 207 208 211 213 212 209 209 210 209 206 204 204 203 201 198
291 292 292 293 294 295 295 294 293 293 292 292 291 291 291 292 293 293 294 294 294 294 294 294 294 293 293 294 294 293 294 294 293 291 291 291 291 290 289 289 288 287 286 285 284 283 283 283 281 279 277 273 269 264 256 247 239 235 231 227 223 218 214 211 209 208 206 205 204 205 206 207 209 211 213 212 211 211 210 208 206 205 205 202 198
294 295 297 299 300 299 297 296 294 294 293 293 292 292 293 293 294 294 294 294 294 294 294 294 293 293 293 293 292 292 293 293 292 292 291 291 290 288 288 287 287 286 285 284 284 283 283 283 282 280 277 274 270 266 260 253 244 238 234 230 226 221 217 214 212 210 209 207 206 206 206 207 209 210 212 213 214 213 212 210 208 207 207 205 201
295 297 300 301 301 299 297 295 294 293 293 293 293 294 294 294 294 294 294 294 294 294 293 293 293 292 291 291 290 291 292 293 292 292 292 291 290 289 288 287 287 287 286 285 284 282 282 282 281 279 277 274 271 268 264 258 250 243 237 233 230 225 221 217 215 213 212 210 209 208 207 208 209 210 212 213 215 215 215 213 211 209 209 208 207
296 299 301 300 298 296 295 294 293 292 292 293 294 294 294 294 294 294 294 293 293 293 292 292 291 290 289 288 288 288 289 290 290 290 291 290 289 288 288 288 288 288 288 287 286 284 283 283 282 280 277 275 272 270 267 262 256 248 241 236 233 230 226 221 218 216 215 213 211 210 209 209 209 210 211 213 214 216 217 216 214 212 211 210 211
297 299 299 297 295 295 294 294 293 293 293 293 294 294 294 294 295 295 294 294 293 292 292 292 291 290 289 288 288 288 288 287 287 287 288 287 286 285 286 286 287 287 286 285 285 285 286 286 285 283 281 278 275 272 268 264 260 254 247 241 236 233 230 226 222 219 218 216 214 213 212 211 211 211 212 213 214 215 217 218 217 216 215 213 213
Height
10919 10917 10914 10910 10907 10903 10900 10896 10893 10889 10886 10883 10880 10877 10874 10871 10868 10866 10865 10863 10860 10857 10855 10852 10849 10847 10845 10843 10840 10836 10831 10826 10822 10817 10813 10809 10806 10802 10798 10793 10789 10784 10780 10776 10771 10767 10764 10761 10760 10758 10756 10754 10753 10753 10753 10752 10751 10752 10753 10754 10757 10760 10762 10763 10763 10757 10753 10758 10763 10764 10768 10773 10774 10777 10781 10784 10787 10794 10801 10806 10809 10812 10816 10820 10824
10915 10911 10908 10905 10902 10898 10895 10891 10889 10885 10881 10878 10874 10871 10868 10865 10862 10860 10859 10857 10854 10851 10849 10846 10843 10841 10839 10836 10832 10828 10824 10819 10815 10812 10809 10804 10799 10796 10792 10788 10785 10781 10777 10773 10768 10763 10759 10755 10753 10751 10749 10746 10745 10745 10744 10742 10742 10742 10743 10744 10746 10749 10753 10753 10752 10749 10745 10746 10751 10754 10757 10762 10764 10766 10771 10774 10777 10783 10791 10796 10799 10804 10808 10812 10816
10911 10907 10904 10901 10897 10893 10890 10887 10884 10881 10877 10873 10870 10866 10862 10859 10857 10855 10852 10850 10848 10846 10843 10840 10837 10833 10830 10826 10823 10818 10815 10812 10809 10807 10803 10798 10793 10789 10786 10782 10778 10775 10771 10768 10763 10759 10754 10749 10746 10744 10742 10739 10737 10736 10735 10733 10731 10731 10732 10734 10736 10738 10741 10742 10741 10740 10738 10736 10739 10743 10745 10749 10753 10755 10759 10764 10767 10772 10780 10786 10790 10794 10800 10804 10807
10907 10904 10899 10895 10893 10889 10886 10883 10879 10875 10872 10868 10864 10861 10858 10855 10852 10850 10847 10844 10842 10840 10837 10834 10830 10826 10822 10818 10814 10811 10807 10804 10802 10799 10795 10792 10787 10782 10778 10774 10770 10767 10763 10759 10755 10751 10747 10742 10738 10735 10733 10731 10728 10726 10725 10724 10721 10721 10721 10723 10726 10727 10728 10730 10730 10729 10729 10728 10728 10731 10733 10735 10739 10743 10748 10753 10757 10761 10768 10774 10779 10784 10790 10794 10799
10902 10902 10896 10889 10887 10885 10881 10877 10874 10869 10865 10861 10858 10855 10853 10850 10847 10845 10842 10839 10837 10835 10832 10828 10825 10821 10818 10814 10810 10807 10803 10799 10796 10792 10789 10785 10780 10775 10771 10767 10763 10759 10754 10750 10746 10742 10738 10735 10731 10727 10724 10721 10718 10716 10715 10714 10711 10710 10710 10712 10715 10716 10716 10717 10719 10719 10720 10718 10717 10719 10721 10723 10725 10729 10736 10743 10747 10750 10756 10761 10766 10773 10779 10784 10790
10898 10899 10894 10884 10879 10878 10875 10871 10867 10863 10858 10853 10850 10848 10847 10844 10842 10840 10837 10834 10832 10830 10827 10823 10820 10818 10815 10811 10807 10803 10799 10796 10792 10788 10784 10779 10774 10770 10765 10761 10756 10752 10747 10742 10738 10734 10730 10727 10723 10720 10716 10712 10708 10706 10705 10703 10701 10699 10700 10702 10703 10704 10705 10705 10707 10708 10708 10707 10706 10707 10709 10711 10713 10716 10722 10731 10736 10738 10743 10749 10754 10761 10768 10774 10781
10892 10894 10891 10881 10873 10869 10867 10864 10860 10855 10851 10847 10843 10840 10839 10839 10836 10834 10831 10829 10826 10824 10821 10819 10816 10814 10810 10805 10801 10797 10795 10792 10789 10785 10780 10775 10770 10764 10759 10754 10749 10745 10739 10734 10729 10725 10721 10718 10714 10711 10707 10703 10698 10696 10694 10692 10690 10688 10689 10691 10692 10693 10693 10693 10694 10695 10696 10695 10693 10694 10698 10700 10701 10704 10708 10717 10723 10726 10731 10736 10742 10749 10757 10764 10771
10887 10889 10887 10879 10870 10863 10859 10857 10852 10846 10844 10843 10838 10833 10832 10832 10830 10828 10825 10823 10820 10818 10816 10813 10810 10807 10803 10798 10794 10792 10790 10788 10784 10779 10774 10768 10761 10755 10750 10746 10741 10736 10731 10726 10721 10716 10712 10707 10704 10700 10696 10692 10689 10686 10684 10681 10679 10677 10677 10678 10679 10680 10681 10681 10682 10682 10683 10683 10680 10681 10686 10688 10689 10693 10696 10701 10710 10715 10719 10725 10731 10737 10745 10753 10761
10881 10882 10882 10879 10870 10859 10854 10852 10846 10841 10839 10838 10834 10829 10826 10824 10823 10822 10819 10817 10814 10812 10809 10806 10802 10799 10795 10791 10787 10785 10784 10782 10778 10772 10766 10759 10753 10747 10741 10737 10732 10727 10722 10717 10712 10707 10702 10697 10693 10690 10686 10681 10677 10675 10673 10670 10668 10666 10665 10665 10666 10667 10667 10667 10668 10669 10669 10669 10667 10668 10672 10675 10677 10681 10683 10688 10696 10703 10708 10714 10720 10725 10733 10743 10750
10879 10880 10883 10883 10872 10856 10850 10848 10842 10837 10834 10831 10828 10825 10821 10819 10817 10815 10813 10811 10808 10805 10802 10798 10795 10792 10788 10785 10781 10778 10776 10773 10769 10764 10758 10752 10746 10740 10733 10728 10723 10718 10713 10708 10703 10697 10692 10687 10683 10679 10675 10670 10667 10663 10660 10658 10657 10655 10654 10653 10653 10654 10654 10653 10654 10655 10654 10654 10653 10654 10658 10662 10665 10668 10671 10675 10682 10690 10696 10702 10707 10712 10721 10732 10739
10881 10880 10883 10883 10871 10856 10848 10845 10839 10833 10828 10824 10821 10819 10816 10814 10811 10809 10807 10804 10801 10798 10795 10792 10789 10786 10782 10778 10774 10771 10768 10764 10759 10755 10751 10745 10739 10733 10727 10721 10715 10709 10704 10700 10695 10689 10684 10678 10672 10668 10664 10660 10656 10653 10649 10646 10645 10643 10642 10640 10640 10641 10641 10640 10640 10640 10639 10639 10639 10641 10644 10649 10652 10655 10658 10662 10669 10676 10683 10690 10696 10701 10710 10720 10728
10876 10875 10875 10873 10866 10856 10848 10841 10835 10828 10821 10818 10815 10812 10810 10807 10805 10803 10800 10797 10794 10791 10789 10786 10782 10779 10775 10770 10766 10763 10760 10755 10750 10746 10742 10737 10732 10726 10720 10714 10707 10700 10695 10691 10686 10681 10675 10668 10662 10657 10653 10650 10646 10642 10638 10635 10633 10632 10630 10628 10627 10628 10628 10628 10627 10626 10625 10625 10625 10627 10632 10636 10638 10641 10646 10650 10655 10663 10670 10678 10684 10689 10698 10709 10716
10868 10867 10867 10864 10857 10851 10843 10836 10830 10822 10816 10813 10810 10806 10804 10801 10800 10797 10794 10790 10788 10785 10782 10779 10776 10771 10767 10762 10758 10754 10751 10747 10742 10737 10733 10728 10723 10717 10711 10705 10698 10691 10685 10681 10677 10671 10666 10659 10652 10646 10643 10640 10637 10632 10627 10624 10622 10621 10619 10617 10615 10615 10615 10615 10614 10614 10613 10613 10613 10615 10619 10623 10625 10628 10633 10638 10643 10650 10658 10666 10672 10678 10687 10698 10705
10860 10857 10858 10855 10848 10842 10837 10830 10823 10816 10812 10809 10805 10801 10800 10798 10796 10793 10787 10784 10781 10778 10776 10773 10769 10764 10758 10754 10751 10747 10743 10739 10734 10730 10725 10719 10714 10707 10700 10693 10687 10681 10675 10671 10668 10663 10657 10650 10643 10637 10632 10629 10627 10623 10618 10614 10612 10610 10608 10606 10605 10604 10604 10603 10602 10602 10603 10603 10603 10604 10608 10612 10615 10617 10622 10627 10632 10639 10647 10655 10661 10668 10677 10686 10693
10855 10849 10849 10847 10840 10834 10829 10822 10816 10811 10807 10804 10800 10797 10795 10794 10792 10787 10782 10778 10775 10772 10770 10767 10762 10757 10751 10746 10744 10741 10737 10732 10727 10722 10717 10711 10705 10698 10690 10683 10677 10671 10666 10661 10658 10653 10648 10642 10635 10628 10623 10619 10617 10614 10610 10606 10603 10600 10598 10597 10595 10595 10594 10593 10592 10592 10593 10593 10594 10595 10598 10601 10604 10606 10610 10616 10622 10629 10637 10645 10652 10659 10667 10675 10683
10849 10844 10842 10841 10835 10828 10822 10816 10812 10808 10804 10800 10797 10793 10791 10789 10787 10783 10778 10773 10770 10767 10764 10760 10756 10751 10744 10739 10736 10734 10730 10725 10719 10714 10709 10703 10697 10690 10682 10675 10669 10662 10657 10652 10648 10643 10637 10632 10626 10619 10614 10610 10608 10605 10602 10598 10595 10592 10590 10587 10586 10586 10585 10584 10584 10584 10584 10585 10586 10587 10589 10592 10595 10597 10600 10608 10615 10621 10628 10637 10643 10650 10658 10667 10674
10843 10839 10836 10833 10828 10822 10817 10813 10809 10805 10801 10797 10793 10789 10787 10784 10780 10777 10773 10768 10765 10761 10757 10753 10749 10744 10738 10732 10728 10726 10722 10717 10712 10706 10701 10695 10689 10681 10674 10667 10661 10655 10649 10643 10638 10632 10627 10622 10617 10611 10605 10601 10599 10596 10593 10591 10588 10585 10582 10579 10578 10578 10577 10576 10576 10576 10577 10578 10579 10580 10581 10583 10586 10589 10593 10600 10607 10612 10620 10627 10634 10641 10650 10659 10666
10835 10832 10829 10825 10821 10816 10812 10808 10804 10800 10795 10791 10786 10782 10778 10775 10772 10769 10766 10761 10757 10752 10747 10743 10739 10735 10729 10724 10721 10717 10714 10709 10703 10698 10692 10686 10680 10673 10666 10660 10653 10647 10640 10634 10629 10623 10618 10613 10608 10602 10596 10592 10590 10587 10584 10583 10581 10578 10575 10572 10571 10570 10570 10569 10569 10570 10571 10571 10572 10573 10573 10575 10578 10581 10587 10594 10599 10604 10610 10617 10624 10633 10642 10649 10655
10830 10827 10822 10817 10813 10809 10806 10801 10797 10794 10789 10783 10778 10772 10768 10765 10762 10759 10756 10753 10748 10742 10736 10732 10729 10725 10719 10715 10712 10709 10705 10700 10694 10688 10683 10678 10671 10665 10659 10652 10645 10638 10632 10626 10620 10615 10609 10604 10599 10594 10588 10584 10582 10579 10576 10575 10573 10571 10568 10566 10564 10563 10563 10563 10563 10563 10564 10565 10566 10567 10567 10568 10571 10574 10580 10586 10591 10595 10600 10606 10615 10625 10633 10638 10645
10821 10818 10815 10810 10805 10801 10797 10793 10789 10785 10781 10775 10769 10763 10759 10755 10752 10750 10746 10743 10740 10734 10726 10719 10717 10715 10711 10707 10704 10701 10697 10691 10685 10679 10674 10669 10662 10656 10650 10643 10636 10629 10623 10617 10611 10605 10600 10595 10590 10585 10580 10576 10574 10571 10569 10567 10566 10564 10562 10560 10558 10557 10557 10558 10558 10558 10559 10559 10561 10562 10562 10562 10565 10568 10572 10578 10583 10586 10590 10597 10606 10616 10623 10628 10637
10810 10808 10805 10801 10796 10791 10786 10781 10778 10775 10772 10768 10762 10756 10750 10745 10742 10740 10737 10735 10733 10727 10718 10710 10706 10702 10699 10696 10694 10691 10686 10680 10675 10670 10665 10659 10653 10646 10640 10633 10627 10620 10613 10608 10602 10595 10589 10585 10580 10576 10572 10569 10566 10564 10562 10560 10559 10557 10556 10554 10553 10552 10552 10553 10554 10554 10555 10555 10556 10557 10557 10557 10560 10563 10565 10570 10574 10578 10581 10589 10599 10607 10613 10620 10629
10799 10797 10794 10790 10786 10781 10777 10772 10769 10767 10764 10761 10756 10748 10740 10734 10731 10731 10730 10729 10727 10720 10712 10704 10698 10693 10688 10685 10683 10680 10675 10670 10665 10661 10656 10649 10643 10637 10630 10624 10617 10611 10605 10599 10593 10587 10580 10575 10571 10568 10564 10561 10559 10557 10556 10554 10552 10551 10550 10549 10548 10548 10548 10549 10550 10550 10551 10551 10552 10552 10552 10553 10555 10557 10559 10562 10566 10570 10574 10581 10591 10599 10604 10611 10621
10788 10786 10783 10779 10774 10770 10766 10763 10761 10760 10758 10758 10754 10744 10731 10722 10720 10722 10722 10719 10717 10713 10707 10699 10693 10687 10682 10678 10675 10671 10666 10661 10657 10652 10646 10639 10632 10626 10620 10614 10608 10602 10596 10591 10584 10578 10572 10567 10563 10560 10557 10554 10552 10551 10549 10547 10546 10545 10545 10544 10544 10544 10545 10546 10546 10546 10547 10547 10548 10548 10548 10549 10550 10551 10552 10555 10558 10563 10568 10574 10582 10590 10597 10605 10614
10775 10772 10769 10766 10762 10757 10754 10752 10750 10749 10750 10751 10748 10738 10726 10716 10712 10712 10711 10707 10704 10702 10698 10692 10686 10681 10675 10670 10666 10662 10657 10652 10648 10641 10634 10628 10621 10615 10610 10605 10599 10593 10587 10582 10576 10570 10564 10559 10555 10552 10550 10548 10546 10544 10543 10541 10540 10540 10540 10540 10540 10541 10542 10543 10543 10543 10543 10544 10545 10545 10545 10545 10544 10545 10547 10549 10552 10556 10561 10567 10575 10583 10591 10600 10609
10761 10757 10755 10751 10747 10744 10741 10738 10736 10736 10736 10735 10734 10730 10724 10716 10708 10704 10702 10699 10695 10691 10687 10683 10679 10673 10668 10663 10658 10653 10647 10642 10636 10629 10623 10617 10611 10605 10601 10596 10591 10585 10579 10573 10567 10561 10556 10551 10547 10545 10543 10541 10540 10538 10536 10535 10535 10534 10535 10536 10536 10538 10539 10540 10540 10540 10541 10542 10542 10542 10541 10540 10540 10541 10543 10545 10548 10551 10555 10562 10569 10577 10586 10595 10604
10747 10741 10739 10736 10733 10731 10728 10725 10724 10723 10722 10721 10721 10720 10717 10711 10704 10699 10695 10691 10688 10683 10679 10675 10671 10666 10660 10654 10649 10643 10636 10630 10623 10617 10611 10606 10601 10596 10592 10587 10583 10577 10570 10564 10558 10553 10548 10544 10540 10537 10536 10535 10533 10532 10530 10530 10529 10530 10530 10532 10533 10535 10536 10537 10538 10538 10539 10539 10539 10539 10538 10537 10537 10538 10539 10541 10543 10546 10551 10557 10563 10571 10580 10590 10599
10740 10730 10726 10724 10721 10720 10719 10717 10716 10715 10712 10711 10711 10709 10705 10700 10696 10691 10686 10682 10678 10674 10670 10666 10662 10657 10651 10644 10638 10630 10623 10617 10611 10605 10601 10596 10591 10587 10583 10579 10575 10568 10561 10555 10549 10544 10540 10536 10532 10530 10529 10528 10527 10526 10525 10524 10524 10525 10526 10528 10530 10532 10533 10534 10535 10535 10536 10536 10536 10536 10535 10534 10535 10535 10536 10537 10540 10544 10548 10552 10557 10565 10574 10584 10594
10732 10723 10717 10713 10712 10712 10711 10709 10708 10706 10705 10703 10701 10697 10693 10689 10685 10681 10677 10673 10669 10664 10660 10656 10651 10645 10638 10631 10625 10618 10611 10605 10600 10596 10592 10587 10582 10578 10574 10570 10566 10559 10552 10545 10540 10535 10532 10528 10525 10523 10522 10521 10521 10520 10519 10519 10519 10520 10522 10524 10527 10529 10530 10531 10532 10533 10533 10534 10534 10534 10533 10533 10533 10533 10533 10534 10537 10541 10545 10548 10553 10561 10570 10580 10590
10717 10712 10707 10704 10704 10703 10702 10701 10700 10698 10696 10694 10691 10686 10682 10677 10674 10670 10666 10662 10657 10652 10648 10642 10636 10630 10624 10619 10614 10608 10602 10596 10591 10588 10584 10579 10573 10569 10565 10560 10555 10549 10542 10536 10531 10528 10524 10521 10518 10516 10515 10514 10514 10514 10514 10514 10515 10516 10518 10521 10523 10525 10527 10528 10529 10530 10531 10531 10531 10532 10532 10531 10531 10532 10532 10533 10535 10539 10542 10546 10551 10558 10566 10575 10585
10704 10700 10696 10694 10693 10692 10691 10691 10691 10689 10687 10683 10679 10674 10670 10666 10663 10659 10654 10649 10643 10638 10632 10627 10621 10616 10612 10609 10605 10600 10594 10588 10584 10579 10575 10569 10564 10559 10554 10550 10545 10539 10532 10526 10523 10519 10516 10513 10511 10510 10509 10508 10508 10508 10509 10509 10510 10512 10514 10517 10520 10522 10524 10525 10526 10528 10529 10529 10529 10530 10530 10530 10530 10531 10532 10533 10535 10537 10540 10544 10550 10556 10563 10571 10580
10694 10691 10687 10685 10683 10681 10680 10679 10678 10676 10673 10668 10664 10660 10657 10654 10649 10645 10640 10634 10629 10624 10619 10615 10610 10607 10604 10601 10597 10592 10586 10580 10576 10571 10565 10559 10553 10548 10543 10539 10533 10528 10523 10518 10514 10511 10508 10506 10504 10503 10503 10502 10502 10503 10504 10505 10506 10508 10510 10513 10516 10518 10520 10522 10523 10525 10526 10528 10528 10528 10529 10529 10529 10530 10532 10533 10535 10537 10540 10543 10548 10554 10561 10568 10577
10684 10682 10680 10678 10676 10672 10669 10667 10665 10662 10658 10653 10650 10647 10644 10640 10635 10631 10626 10621 10617 10614 10610 10605 10601 10597 10595 10593 10588 10582 10576 10571 10566 10561 10555 10549 10542 10537 10532 10528 10523 10518 10514 10510 10506 10503 10501 10499 10498 10497 10496 10497 10497 10497 10499 10500 10502 10504 10506 10509 10512 10515 10517 10519 10520 10522 10524 10525 10526 10526 10527 10528 10528 10529 10531 10533 10535 10537 10541 10544 10548 10553 10559 10566 10573
10673 10672 10671 10670 10667 10663 10659 10656 10654 10651 10647 10642 10638 10635 10631 10628 10623 10619 10614 10611 10608 10604 10600 10596 10591 10588 10586 10583 10578 10571 10564 10560 10556 10551 10545 10539 10532 10526 10522 10518 10513 10509 10505 10502 10498 10496 10494 10493 10492 10491 10490 10491 10491 10492 10494 10496 10497 10500 10502 10506 10509 10511 10513 10516 10517 10519 10521 10523 10523 10524 10525 10526 10527 10528 10530 10533 10535 10537 10541 10545 10549 10552 10558 10564 10571
10663 10661 10660 10659 10655 10651 10647 10646 10645 10642 10638 10633 10629 10625 10622 10618 10613 10609 10604 10601 10598 10594 10590 10586 10582 10579 10576 10573 10568 10560 10553 10549 10545 10540 10534 10528 10521 10516 10511 10507 10504 10500 10497 10494 10491 10489 10488 10487 10486 10485 10484 10485 10486 10487 10489 10491 10493 10495 10498 10502 10505 10507 10510 10512 10514 10516 10518 10520 10521 10522 10523 10524 10525 10527 10529 10532 10534 10536 10539 10543 10548 10552 10557 10563 10569
10649 10648 10647 10645 10642 10639 10637 10636 10635 10632 10628 10623 10619 10615 10612 10608 10603 10599 10595 10591 10587 10583 10580 10576 10572 10569 10566 10563 10557 10550 10543 10538 10533 10528 10522 10517 10512 10507 10502 10498 10494 10492 10490 10487 10484 10483 10481 10480 10479 10479 10478 10479 10480 10481 10483 10486 10488 10491 10494 10497 10501 10503 10506 10508 10510 10512 10514 10516 10518 10519 10520 10521 10523 10525 10527 10529 10532 10535 10538 10541 10546 10550 10555 10561 10567
10634 10635 10634 10631 10628 10627 10625 10623 10621 10618 10614 10610 10607 10603 10599 10596 10592 10589 10585 10580 10576 10572 10568 10564 10561 10558 10555 10552 10547 10540 10533 10528 10522 10517 10512 10508 10503 10499 10494 10489 10486 10483 10481 10480 10478 10477 10475 10474 10473 10473 10473 10473 10474 10476 10478 10480 10483 10486 10489 10493 10496 10499 10502 10504 10506 10508 10510 10513 10515 10516 10517 10519 10521 10523 10524 10527 10530 10533 10536 10539 10543 10548 10553 10559 10565
10623 10621 10620 10617 10615 10612 10610 10607 10604 10600 10597 10595 10592 10589 10585 10582 10580 10576 10573 10569 10564 10560 10556 10552 10549 10546 10544 10541 10536 10530 10524 10517 10511 10506 10502 10498 10495 10491 10487 10482 10478 10475 10473 10472 10472 10471 10470 10469 10468 10467 10467 10468 10469 10470 10473 10475 10478 10480 10484 10487 10491 10495 10498 10500 10502 10504 10506 10508 10511 10513 10515 10516 10518 10520 10522 10524 10527 10531 10534 10538 10541 10545 10550 10555 10561
10612 10609 10606 10604 10601 10598 10595 10591 10588 10584 10581 10579 10577 10574 10572 10569 10567 10564 10561 10557 10553 10548 10544 10539 10536 10533 10531 10528 10525 10520 10514 10507 10500 10495 10492 10489 10486 10484 10480 10476 10472 10468 10466 10465 10465 10464 10463 10463 10463 10462 10462 10462 10464 10465 10467 10469 10472 10475 10478 10482 10486 10490 10493 10496 10498 10500 10502 10504 10507 10509 10511 10513 10515 10517 10520 10522 10524 10528 10532 10536 10539 10542 10546 10551 10556
10600 10597 10594 10591 10589 10586 10583 10579 10576 10572 10568 10565 10563 10561 10560 10557 10554 10551 10548 10544 10540 10535 10531 10527 10524 10521 10518 10516 10513 10509 10503 10496 10490 10486 10482 10479 10477 10475 10472 10468 10465 10463 10461 10459 10458 10457 10457 10457 10457 10456 10456 10457 10458 10460 10461 10464 10466 10469 10473 10476 10480 10484 10487 10491 10494 10496 10498 10500 10502 10505 10507 10509 10511 10514 10516 10519 10521 10525 10528 10532 10536 10540 10543 10548 10552
10588 10586 10583 10580 10577 10574 10571 10568 10564 10560 10556 10553 10550 10548 10547 10545 10542 10539 10535 10531 10527 10522 10519 10515 10512 10509 10506 10504 10501 10497 10492 10486 10480 10477 10474 10471 10468 10466 10463 10460 10458 10457 10455 10454 10452 10451 10451 10451 10451 10451 10451 10452 10453 10454 10455 10457 10460 10463 10467 10470 10474 10478 10481 10485 10488 10491 10493 10496 10498 10500 10503 10505 10508 10510 10512 10515 10518 10521 10524 10528 10532 10536 10540 10544 10549
10576 10574 10571 10568 10564 10561 10557 10554 10550 10546 10543 10540 10538 10535 10534 10532 10529 10526 10522 10518 10514 10510 10506 10503 10500 10497 10494 10492 10488 10485 10480 10475 10471 10468 10466 10463 10460 10458 10455 10452 10451 10450 10449 10447 10445 10444 10444 10444 10444 10444 10445 10446 10447 10448 10450 10452 10454 10457 10460 10464 10468 10471 10475 10479 10482 10485 10488 10491 10493 10495 10498 10501 10503 10506 10509 10511 10514 10517 10520 10524 10528 10532 10536 10540 10545
10566 10563 10559 10555 10552 10548 10544 10540 10537 10534 10532 10529 10526 10523 10521 10518 10515 10512 10508 10504 10500 10497 10493 10490 10487 10485 10482 10479 10476 10473 10469 10465 10462 10459 10456 10454 10452 10450 10447 10445 10444 10443 10442 10440 10438 10437 10437 10437 10437 10438 10439 10440 10441 10442 10444 10445 10448 10450 10454 10458 10461 10465 10468 10472 10476 10479 10482 10485 10488 10490 10493 10496 10498 10501 10504 10507 10510 10512 10516 10519 10524 10528 10532 10536 10540
10557 10553 10549 10545 10541 10538 10534 10530 10527 10525 10522 10520 10516 10512 10509 10506 10503 10499 10495 10491 10486 10482 10479 10477 10475 10473 10470 10468 10465 10462 10459 10457 10455 10452 10448 10445 10443 10442 10440 10438 10437 10436 10435 10433 10431 10431 10431 10430 10430 10431 10432 10433 10434 10435 10437 10439 10441 10443 10447 10450 10454 10458 10461 10465 10469 10473 10476 10479 10482 10485 10487 10490 10493 10496 10499 10503 10506 10508 10511 10514 10518 10522 10527 10531 10535
10548 10544 10539 10535 10531 10528 10524 10521 10518 10515 10512 10510 10507 10501 10496 10493 10491 10487 10483 10479 10474 10471 10468 10466 10464 10461 10459 10456 10454 10451 10449 10449 10447 10444 10440 10437 10435 10433 10432 10431 10430 10429 10427 10425 10424 10424 10423 10423 10423 10424 10424 10425 10427 10429 10430 10432 10434 10436 10439 10443 10447 10451 10454 10458 10462 10465 10469 10473 10476 10479 10482 10484 10487 10490 10493 10497 10501 10504 10506 10509 10513 10517 10521 10525 10530
10538 10535 10530 10526 10521 10518 10514 10510 10507 10503 10501 10498 10495 10489 10484 10480 10477 10474 10471 10467 10464 10462 10459 10456 10453 10450 10447 10446 10444 10442 10440 10440 10440 10436 10432 10430 10428 10425 10423 10423 10422 10421 10420 10418 10417 10417 10416 10416 10416 10417 10417 10418 10420 10421 10423 10424 10426 10428 10431 10435 10439 10443 10447 10451 10455 10458 10462 10465 10469 10472 10475 10478 10481 10484 10488 10491 10495 10498 10501 10504 10507 10511 10515 10519 10523
10526 10523 10520 10516 10511 10508 10503 10499 10495 10491 10488 10485 10480 10476 10471 10468 10466 10463 10460 10457 10455 10453 10451 10448 10445 10440 10437 10435 10434 10431 10431 10432 10432 10429 10426 10423 10421 10418 10416 10415 10414 10414 10413 10411 10411 10410 10410 10410 10410 10411 10411 10411 10412 10414 10415 10417 10419 10421 10423 10427 10430 10434 10439 10443 10447 10450 10454 10458 10462 10465 10468 10472 10475 10478 10481 10485 10488 10492 10495 10498 10502 10505 10509 10512 10516
10512 10509 10507 10503 10500 10496 10491 10486 10482 10479 10475 10471 10467 10463 10460 10457 10455 10453 10450 10448 10446 10443 10441 10440 10437 10433 10429 10427 10425 10422 10422 10423 10423 10421 10419 10417 10415 10412 10410 10409 10408 10407 10407 10406 10405 10404 10405 10405 10406 10405 10405 10405 10406 10406 10408 10409 10411 10413 10415 10418 10422 10426 10430 10434 10439 10443 10446 10450 10454 10457 10461 10465 10468 10472 10475 10478 10482 10485 10489 10492 10495 10499 10502 10506 10509
10500 10497 10494 10491 10487 10483 10478 10474 10470 10467 10463 10459 10455 10452 10449 10448 10446 10443 10440 10438 10436 10434 10433 10431 10429 10425 10422 10419 10417 10414 10414 10415 10415 10414 10413 10411 10408 10406 10405 10404 10403 10402 10402 10401 10400 10400 10400 10401 10401 10401 10400 10400 10400 10400 10401 10403 10404 10406 10408 10410 10413 10417 10421 10426 10430 10434 10438 10442 10446 10449 10453 10457 10461 10464 10468 10472 10475 10478 10482 10485 10489 10492 10496 10499 10503
10489 10487 10484 10481 10477 10473 10468 10463 10459 10456 10453 10450 10446 10443 10440 10439 10437 10434 10431 10429 10427 10425 10424 10423 10421 10418 10415 10413 10410 10408 10407 10406 10406 10406 10406 10404 10402 10400 10399 10398 10398 10397 10397 10396 10396 10396 10396 10397 10397 10396 10395 10395 10395 10395 10396 10397 10398 10400 10401 10403 10405 10409 10412 10417 10421 10426 10430 10434 10438 10441 10445 10449 10453 10457 10461 10465 10468 10471 10474 10478 10482 10485 10489 10492 10496
10478 10477 10475 10472 10468 10464 10459 10454 10449 10446 10443 10440 10437 10434 10432 10430 10428 10426 10423 10420 10418 10417 10416 10415 10415 10413 10410 10407 10405 10404 10403 10401 10399 10399 10399 10398 10396 10394 10393 10393 10393 10393 10392 10391 10391 10391 10392 10393 10393 10391 10390 10390 10390 10391 10391 10391 10392 10393 10395 10396 10398 10401 10404 10408 10412 10417 10421 10426 10430 10433 10437 10441 10445 10449 10453 10457 10460 10463 10466 10470 10474 10478 10481 10484 10487
10469 10467 10464 10462 10458 10455 10450 10446 10441 10436 10432 10429 10426 10424 10423 10421 10420 10417 10415 10412 10410 10408 10407 10407 10407 10406 10404 10401 10400 10399 10398 10397 10395 10394 10394 10393 10392 10390 10389 10389 10388 10388 10388 10387 10386 10386 10387 10388 10387 10386 10384 10384 10386 10387 10387 10387 10387 10387 10388 10390 10392 10394 10396 10400 10404 10408 10413 10417 10421 10425 10429 10433 10437 10441 10444 10449 10452 10455 10458 10462 10466 10470 10473 10476 10479